www.pogodaiklimat.ru

Погода и климат >> Архив погоды >> Дания >> Омо


ПОГОДА в Омо

  • Прогноз погоды в Омо
  • Монитор погоды в Омо

АРХИВ ПОГОДЫ в Омо

Время (UTC), дата Ветер
(напр.,м/с)
 
Видим.   Явления Облачность Т
(С)
Тd
(С)
f
(%)
Тe
(С)
Тes
(С)
Комфортность P
(гПа)
Po
(гПа)
Тmin
(С)
Tmax
(С)
R
(мм)
R24
(мм)
S
(см)
22 8.09 В 2 н/о н/о +13.1 +11.8 92 +13 +13 1018.5 1018.1
23 8.09 СВ 2 н/о н/о +13.0 +11.9 93 +12 +12 1018.2 1017.9
00 9.09 В 1 н/о н/о +12.9 +11.8 93 +13 +13 1017.9 1017.6
01 9.09 СВ 1 н/о н/о +12.0 +11.5 97 +13 +13 1017.4 1017.0
02 9.09 СВ 2 н/о н/о +10.9 +10.3 96 +9 +9 1016.8 1016.4
03 9.09 СВ 2 н/о н/о +11.8 +10.6 92 +11 +11 1016.1 1015.8
04 9.09 СВ 2 н/о н/о +12.0 +10.4 90 +11 +11 1016.2 1015.8
05 9.09 СВ 2 н/о н/о +13.4 +11.0 85 +13 +13 1016.2 1015.9
06 9.09 СВ 3 н/о н/о +13.8 +11.4 85 +13 +13 1015.9 1015.6 +10.8 +15.0
07 9.09 СВ 2 н/о н/о +14.3 +12.5 89 +14 +14 1015.5 1015.2
08 9.09 н/о н/о +14.7 +13.3 91 1015.1 1014.8
09 9.09 С 4 н/о н/о +15.8 +13.5 86 +15 +15 1014.5 1014.1
10 9.09 С 4 н/о н/о +15.7 +13.3 86 +15 +15 1014.2 1013.9
11 9.09 С 4 н/о н/о +15.5 +13.4 87 +15 +15 1013.8 1013.4
12 9.09 С 3 н/о н/о +15.6 +13.1 85 +15 +15 1013.5 1013.2
13 9.09 СЗ 3 н/о н/о +15.3 +12.6 84 +15 +15 1013.0 1012.6
14 9.09 СЗ 5 н/о н/о +14.8 +12.3 85 +13 +13 1012.3 1012.0
15 9.09 СЗ 6 н/о н/о +15.1 +14.1 94 +13 +13 1011.9 1011.6
16 9.09 С 7 н/о н/о +15.2 +14.2 94 +13 +13 1011.7 1011.3
17 9.09 С 8 н/о н/о +14.8 +14.0 95 +13 +13 1011.4 1011.0
18 9.09 С 8 н/о н/о +14.9 +14.2 96 +13 +13 1011.3 1010.9 +13.6 +16.0
19 9.09 С 8 н/о н/о +15.0 +14.4 96 +13 +13 1010.9 1010.6
20 9.09 С 7 н/о н/о +15.2 +14.7 97 +13 +13 1010.7 1010.4
21 9.09 С 7 н/о н/о +15.1 +14.6 97 +13 +13 1010.3 1009.9
22 9.09 С 6 н/о н/о +15.2 +14.5 96 +14 +14 1009.8 1009.5
23 9.09 С 6 н/о н/о +15.3 +14.5 95 +14 +14 1009.5 1009.2
00 10.09 СЗ 6 н/о н/о +15.2 +14.5 96 +14 +14 1009.4 1009.1
01 10.09 СЗ 7 н/о н/о +14.7 +14.3 97 +13 +13 1009.2 1008.8
02 10.09 З 9 н/о н/о +14.4 +13.9 97 +12 +12 1008.9 1008.5
03 10.09 СЗ 10 н/о н/о +14.4 +13.6 95 +12 +12 1008.2 1007.8
04 10.09 СЗ 9 н/о н/о +14.4 +13.7 96 +12 +12 1008.1 1007.8
05 10.09 СЗ 9 н/о н/о +14.4 +13.8 96 +12 +12 1008.3 1008.0
06 10.09 З 11 н/о н/о +14.3 +13.8 97 +11 +11 1008.3 1008.0 +14.2 +15.4
07 10.09 З 11 н/о н/о +14.3 +13.6 96 +11 +11 1008.6 1008.3
08 10.09 З 11 н/о н/о +14.4 +13.5 94 +11 +11 1008.9 1008.6
09 10.09 З 11 н/о н/о +14.7 +14.0 96 +12 +12 1008.9 1008.6
10 10.09 З 10 н/о н/о +14.8 +14.0 95 +12 +12 1009.1 1008.8
11 10.09 З 10 н/о н/о +15.1 +14.3 95 +13 +13 1009.3 1009.0
12 10.09 З 11 н/о н/о +15.4 +14.6 95 +13 +13 1009.6 1009.3
13 10.09 З 10 н/о н/о +15.6 +14.7 94 +13 +13 1010.0 1009.7
14 10.09 З 11 н/о н/о +15.5 +14.7 95 +13 +13 1010.7 1010.3
15 10.09 З 11 н/о н/о +15.2 +14.2 94 +13 +13 1011.1 1010.8
16 10.09 З 10 н/о н/о +15.1 +13.7 91 +13 +13 1011.9 1011.5
17 10.09 З 9 н/о н/о +15.1 +13.8 92 +13 +13 1012.5 1012.2
18 10.09 З 6 н/о н/о +15.4 +14.0 91 +14 +14 1012.9 1012.6 +14.1 +15.8
19 10.09 З 9 н/о н/о +15.8 +13.7 87 +14 +14 1013.4 1013.1
20 10.09 З 9 н/о н/о +15.5 +13.3 87 +13 +13 1014.0 1013.7
21 10.09 З 9 н/о н/о +15.3 +13.3 88 +13 +13 1014.5 1014.2
22 10.09 З 10 н/о н/о +15.1 +13.2 88 +13 +13 1015.0 1014.7
23 10.09 З 9 н/о н/о +14.7 +12.8 88 +12 +12 1015.4 1015.1
00 11.09 З 8 н/о н/о +14.4 +12.7 90 +12 +12 1016.1 1015.8
01 11.09 З 7 н/о н/о +14.4 +12.6 89 +12 +12 1016.5 1016.2
02 11.09 З 7 н/о н/о +14.4 +12.7 90 +12 +12 1016.7 1016.4
03 11.09 ЮЗ 8 н/о н/о +14.3 +12.9 91 +12 +12 1016.7 1016.4
04 11.09 ЮЗ 8 н/о н/о +14.4 +13.0 91 +12 +12 1016.9 1016.5
05 11.09 ЮЗ 8 н/о н/о +14.4 +13.1 92 +12 +12 1017.1 1016.7
06 11.09 ЮЗ 7 н/о н/о +14.7 +12.9 89 +13 +13 1017.2 1016.9 +14.2 +15.9
07 11.09 ЮЗ 9 н/о н/о +15.4 +13.3 87 +13 +13 1017.5 1017.1
08 11.09 Ю 10 н/о н/о +15.9 +12.9 82 +14 +14 1017.5 1017.1
09 11.09 Ю 10 н/о н/о +16.1 +13.4 84 +14 +14 1017.4 1017.0
10 11.09 Ю 10 н/о н/о +17.0 +14.0 82 +15 +15 1017.3 1017.0
11 11.09 Ю 11 н/о н/о +17.7 +13.9 78 +16 +16 1017.1 1016.7
12 11.09 Ю 11 н/о н/о +17.6 +13.9 79 +16 +16 1016.6 1016.3
13 11.09 Ю 11 н/о н/о +17.5 +13.8 79 +16 +16 1016.4 1016.1
14 11.09 Ю 10 н/о н/о +17.0 +14.1 83 +15 +15 1016.2 1015.8
15 11.09 ЮЗ 10 н/о н/о +16.5 +14.0 85 +15 +15 1015.8 1015.4
16 11.09 ЮЗ 13 н/о н/о +16.2 +13.6 85 +14 +14 1015.7 1015.4
17 11.09 ЮЗ 12 н/о н/о +15.1 +14.0 93 +12 +12 1015.8 1015.5
18 11.09 ЮЗ 14 н/о н/о +14.7 +14.2 97 +11 +11 1015.6 1015.2 +14.5 +18.0
19 11.09 ЮЗ 13 н/о н/о +14.7 +14.2 97 +12 +12 1015.5 1015.2
20 11.09 ЮЗ 13 н/о н/о +14.9 +14.2 96 +12 +12 1015.6 1015.3
21 11.09 ЮЗ 12 н/о н/о +15.2 +14.5 96 +12 +12 1016.0 1015.7
22 11.09 ЮЗ 9 н/о н/о +15.3 +14.7 96 +13 +13 1016.8 1016.4
23 11.09 ЮЗ 6 н/о н/о +15.3 +14.7 96 +14 +14 1017.2 1016.9
00 12.09 З 7 н/о н/о +15.2 +14.3 94 +13 +13 1018.0 1017.7
01 12.09 З 7 н/о н/о +14.8 +13.6 93 +13 +13 1018.7 1018.4
02 12.09 З 8 н/о н/о +14.7 +13.4 92 +12 +12 1019.0 1018.7
03 12.09 ЮЗ 7 н/о н/о +14.7 +13.3 91 +13 +13 1019.7 1019.4
04 12.09 ЮЗ 7 н/о н/о +14.6 +13.4 93 +13 +13 1020.1 1019.8
05 12.09 ЮЗ 7 н/о н/о +14.7 +13.4 92 +13 +13 1020.7 1020.4
06 12.09 ЮЗ 7 н/о н/о +15.3 +13.5 89 +13 +13 1021.3 1021.0 +14.4 +15.5
07 12.09 ЮЗ 7 н/о н/о +15.9 +13.6 86 +14 +14 1021.8 1021.4
08 12.09 ЮЗ 7 н/о н/о +16.8 +13.8 82 +16 +16 1022.4 1022.0
09 12.09 ЮЗ 7 н/о н/о +17.4 +14.4 83 +16 +16 1022.8 1022.4
10 12.09 ЮЗ 8 н/о н/о +17.9 +14.4 80 +17 +17 1023.3 1022.9
11 12.09 ЮЗ 8 н/о н/о +18.6 +15.1 80 +19 +19 1023.3 1023.0
12 12.09 ЮЗ 8 н/о н/о +17.5 +14.7 84 +16 +16 1023.4 1023.1
13 12.09 ЮЗ 8 н/о н/о +16.6 +14.5 87 +15 +15 1023.6 1023.3
14 12.09 ЮЗ 8 н/о н/о +17.2 +14.2 83 +16 +16 1023.5 1023.2
15 12.09 ЮЗ 6 н/о н/о +17.8 +13.6 76 +17 +17 1023.5 1023.2
16 12.09 ЮЗ 6 н/о н/о +17.3 +13.7 79 +16 +16 1023.4 1023.1
17 12.09 ЮЗ 6 н/о н/о +17.0 +14.0 82 +16 +16 1023.3 1023.0
18 12.09 ЮЗ 5 н/о н/о +16.2 +13.8 86 +15 +15 1023.6 1023.3 +15.2 +19.0
19 12.09 ЮЗ 8 н/о н/о +16.2 +13.8 86 +15 +15 1023.6 1023.3
20 12.09 ЮЗ 7 н/о н/о +16.2 +13.9 86 +15 +15 1023.5 1023.2
21 12.09 ЮЗ 8 н/о н/о +16.4 +14.1 86 +15 +15 1022.9 1022.6
22 12.09 ЮЗ 9 н/о н/о +16.3 +14.1 87 +15 +15 1022.6 1022.2
23 12.09 ЮЗ 8 н/о н/о +16.2 +14.5 90 +15 +15 1022.1 1021.8
00 13.09 ЮЗ 8 н/о н/о +16.4 +14.7 90 +15 +15 1021.5 1021.2
01 13.09 ЮЗ 9 н/о н/о +16.4 +14.7 90 +15 +15 1020.5 1020.2
02 13.09 ЮЗ 10 н/о н/о +16.0 +15.3 96 +14 +14 1019.8 1019.4
03 13.09 ЮЗ 11 н/о н/о +16.1 +15.6 97 +14 +14 1019.4 1019.1
04 13.09 СЗ 9 н/о н/о +14.6 +13.8 95 +12 +12 1020.5 1020.2
05 13.09 СЗ 8 н/о н/о +14.8 +12.7 87 +13 +13 1022.0 1021.7
06 13.09 СЗ 7 н/о н/о +14.8 +12.0 83 +13 +13 1023.3 1023.0 +14.6 +16.5
07 13.09 СЗ 9 н/о н/о +14.9 +12.1 83 +13 +13 1024.1 1023.8
08 13.09 СЗ 8 н/о н/о +15.3 +11.1 76 +13 +13 1025.4 1025.1
09 13.09 СЗ 9 н/о н/о +15.7 +10.6 72 +14 +14 1026.7 1026.3
10 13.09 З 9 н/о н/о +15.9 +9.4 65 +14 +14 1027.3 1027.0
11 13.09 СЗ 8 н/о н/о +16.5 +8.8 60 +15 +15 1028.0 1027.6
12 13.09 СЗ 8 н/о н/о +17.0 +9.1 60 +16 +16 1028.5 1028.1
13 13.09 СЗ 7 н/о н/о +17.0 +9.3 60 +16 +16 1029.0 1028.7
14 13.09 СЗ 7 н/о н/о +17.2 +9.1 59 +16 +16 1029.4 1029.0
15 13.09 З 9 н/о н/о +17.0 +9.3 60 +16 +16 1029.8 1029.4
16 13.09 З 9 н/о н/о +16.4 +9.0 62 +15 +15 1029.8 1029.4
17 13.09 З 10 н/о н/о +15.7 +10.0 69 +14 +14 1030.3 1030.0
18 13.09 З 9 н/о н/о +15.3 +8.8 65 +13 +13 1030.9 1030.6 +14.6 +17.4
19 13.09 З 9 н/о н/о +14.7 +9.7 72 +12 +12 1031.3 1031.0
20 13.09 З 8 н/о н/о +14.1 +9.4 73 +12 +12 1031.5 1031.2
21 13.09 З 8 н/о н/о +13.6 +9.5 76 +11 +11 1032.1 1031.8
22 13.09 З 7 н/о н/о +13.3 +9.4 77 +11 +11 1032.7 1032.3
23 13.09 З 7 н/о н/о +13.2 +9.8 80 +11 +11 1032.5 1032.1
00 14.09 З 7 н/о н/о +13.0 +9.3 78 +10 +10 1032.4 1032.1
01 14.09 З 8 н/о н/о +13.3 +9.4 77 +11 +11 1032.7 1032.4
02 14.09 З 8 н/о н/о +12.8 +9.3 79 +10 +10 1032.8 1032.4
03 14.09 З 7 н/о н/о +13.0 +9.4 79 +10 +10 1032.6 1032.2
04 14.09 З 7 н/о н/о +13.0 +9.5 79 +10 +10 1032.4 1032.1
05 14.09 З 7 н/о н/о +12.9 +9.5 80 +10 +10 1032.7 1032.3
06 14.09 З 7 н/о н/о +13.2 +9.4 78 +11 +11 1033.0 1032.6 +12.7 +15.3
07 14.09 З 6 н/о н/о +13.8 +9.6 76 +12 +12 1033.2 1032.8
08 14.09 З 6 н/о н/о +14.6 +10.0 74 +13 +13 1033.4 1033.1
09 14.09 З 6 н/о н/о +15.1 +9.9 71 +14 +14 1033.1 1032.8
10 14.09 З 5 н/о н/о +15.9 +10.0 68 +15 +15 1033.0 1032.7
11 14.09 З 4 н/о н/о +16.6 +9.1 61 +16 +16 1032.6 1032.3
12 14.09 ЮЗ 5 н/о н/о +16.5 +9.4 63 +16 +16 1032.1 1031.7
13 14.09 ЮЗ 8 н/о н/о +17.1 +10.9 67 +16 +16 1031.3 1031.0
14 14.09 ЮЗ 8 н/о н/о +17.2 +11.1 67 +16 +16 1030.3 1030.0
15 14.09 ЮЗ 9 н/о н/о +16.8 +10.4 66 +15 +15 1029.7 1029.4
16 14.09 ЮЗ 9 н/о н/о +16.2 +10.1 67 +14 +14 1028.8 1028.5
17 14.09 ЮЗ 8 н/о н/о +15.7 +10.8 73 +14 +14 1028.3 1028.0
18 14.09 ЮЗ 8 н/о н/о +15.1 +10.6 74 +13 +13 1028.0 1027.7 +13.1 +17.8
19 14.09 ЮЗ 8 н/о н/о +14.8 +11.5 81 +13 +13 1027.0 1026.6
20 14.09 ЮЗ 9 н/о н/о +14.8 +11.7 82 +12 +12 1026.0 1025.6
21 14.09 ЮЗ 11 н/о н/о +14.5 +11.0 80 +12 +12 1024.7 1024.3
22 14.09 ЮЗ 11 н/о н/о +14.6 +11.6 82 +12 +12 1023.9 1023.6
23 14.09 ЮЗ 11 н/о н/о +14.8 +11.6 81 +12 +12 1022.7 1022.4
00 15.09 ЮЗ 12 н/о н/о +14.7 +11.9 83 +12 +12 1021.7 1021.4
01 15.09 ЮЗ 12 н/о н/о +14.8 +11.7 82 +12 +12 1020.1 1019.8
02 15.09 ЮЗ 13 н/о н/о +14.9 +11.5 80 +12 +12 1018.9 1018.6
03 15.09 ЮЗ 13 н/о н/о +14.7 +11.5 81 +12 +12 1017.7 1017.3
04 15.09 ЮЗ 13 н/о н/о +14.7 +11.7 82 +12 +12 1016.5 1016.2
05 15.09 ЮЗ 14 н/о н/о +14.6 +11.9 84 +11 +11 1015.3 1015.0
06 15.09 ЮЗ 13 н/о н/о +14.8 +12.3 85 +12 +12 1014.5 1014.2 +14.5 +15.2
07 15.09 ЮЗ 13 н/о н/о +15.2 +12.9 86 +12 +12 1014.1 1013.8
08 15.09 ЮЗ 12 н/о н/о +15.6 +13.6 88 +13 +13 1013.7 1013.4
09 15.09 З 11 н/о н/о +15.8 +14.2 90 +13 +13 1013.8 1013.5
10 15.09 ЮЗ 10 н/о н/о +15.9 +14.4 91 +14 +14 1013.7 1013.4
11 15.09 З 9 н/о н/о +14.6 +13.0 90 +12 +12 1014.1 1013.8
12 15.09 З 10 н/о н/о +15.8 +11.6 76 +14 +14 1014.4 1014.1
13 15.09 З 9 н/о н/о +16.7 +12.3 75 +15 +15 1014.2 1013.8
14 15.09 З 13 н/о н/о +16.2 +9.1 63 +14 +14 1014.4 1014.1
15 15.09 З 13 н/о н/о +15.6 +8.9 64 +13 +13 1015.0 1014.7
17 15.09 З 12 н/о н/о +14.8 +9.7 71 +12 +12 1014.9 1014.6
18 15.09 З 12 н/о н/о +14.2 +8.7 69 +11 +11 1015.4 1015.1 +14.2 +16.9
19 15.09 З 10 н/о н/о +13.7 +9.0 73 +11 +11 1015.6 1015.2
20 15.09 З 12 н/о н/о +13.7 +8.8 72 +10 +10 1015.6 1015.3
21 15.09 З 11 н/о н/о +13.3 +8.9 75 +10 +10 1015.7 1015.4

 

Местоположение метеостанции Омо (Дания): широта 55.17 долгота 11.13 высота над уровнем моря 3 м.

В архиве по умолчанию представлена погода в Омо за последнюю неделю. Архивные данные за месяц целиком и за предыдущие месяцы, начиная с января 2011 года, Вы можете получить, выбрав интересующий диапазон дат из раскрывающегося списка и нажав кнопку "Ввод!".


*Определитесь, кто Вы:
робот инопланетянин человек

Внимание! Время в таблицах - всемирное. Для получения местного времени необходимо прибавить поправку, которая равна 1 ч.

Смотрите также архив погоды в соседних городах и на ближайших метеорологических станциях:

Погода в Тысофте (Дания) (16 км)
Погода в Флаккебэрге (Дания) (23 км)
Погода в Тосинге (Дания) (39 км)
Погода в Ланго (Дания) (40 км)
Погода в Абеде (Дания) (40 км)
Погода в Арслеве (Дания) (46 км)
Погода в Бранделеве (Дания) (47 км)
Погода в Оденсе (Дания) (61 км)
Погода на Мысе Roesnaes (Дания) (67 км)
Погода в Хольбеке (Дания) (69 км)

Пояснения к столбцам:

Ветер - указаны скорость ветра в м/с - средняя за 10 мин, порывы в срок и между сроками (в фигурных скобках) и направление, откуда дует ветер: С - северный, СВ - северо-восточный, В - восточный, ЮВ - юго-восточный, Ю - южный, ЮЗ - юго-западный, З - западный, СЗ - северо-западный.
Видимость - горизонтальная дальность видимости в метрах или километрах. При видимости от 1 до 10 км при отсутствии осадков обычно наблюдается дымка, при ухудшении видимости до 1 км и менее - туман. В сухую погоду видимость может ухудшаться дымом, пылью или мглою.
Явления - указаны атмосферные явления, наблюдавшиеся в срок или в последний час перед сроком; фигурными скобками обозначены явления, наблюдавшиеся между сроками (за 1-3 часа до срока); квадратными скобками обозначены град или гололедные отложения с указанием их диаметра в мм.
Облачность - указаны через наклонную черту общая и нижняя облачность в баллах и высота нижней границы облаков в метрах; квадратными скобками обозначены формы облаков: Ci - перистые, Cs - перисто-слоистые, Cc - перисто-кучевые, Ac - высококучевые, As - высокослоистые, Sc - слоисто-кучевые, Ns - слоисто-дождевые, Cu - кучевые, Cb - кучево-дождевые. Подробнее классификацию облаков см. в Атласе облаков (PDF).
T - Температура воздуха - температура, измеренная на высоте 2 м над землей.
Td - Температура точки росы - температура, при понижении до которой содержащийся в воздухе водяной пар достигнет насыщения.
f - Относительная влажность воздуха - влажноcть воздуха, измеренная на высоте 2 м над землей.
Te - Эффективная температура - температура, которую ощущает одетый по сезону человек в тени. Характеристика душности погоды. При расчете учитывается влияние влажности воздуха и скорости ветра на теплоощущения человека.
Tes - Эффективная температура на солнце - температура, которую ощущает человек, с поправкой на солнечный нагрев. Характеристика знойности погоды. Зависит от высоты солнца над горизонтом, облачности и скорости ветра. Ночью, в пасмурную погоду, а также при ветре 12 м/с и более поправка равна нулю.
P - Атмосферное давление - приведенное к уровню моря атмосферное давление.
Po - Атмосферное давление - измеренное на уровне метеостанции атмосферное давление.
Tmin - Минимальная температура - минимум температуры воздуха на высоте 2 м над землей.
Tmax - Максимальная температура - максимум температуры воздуха на высоте 2 м над землей.
R - Количество осадков - Количество выпавших осадков за период времени, мм. При наведении курсора мыши на число - период времени, за который выпало указанное количество осадков.
R24 - Количество осадков - Количество выпавших осадков за 24 часа, мм.
S - Снежный покров - Высота снежного покрова, см. При наведении курсора мыши на число - состояние снежного покрова и степень покрытия местности в баллах.